Location: Azul
(36.7830°S, 59.8500°W)
Time: 18:50:06
(UTC-03:00)

AO-109 - Pass Details

Date: 01 November 2021
Orbit: 474 x 522 km, 60.7° (Epoch: 06 December)

Event Time Altitude Azimuth Distance (km) Brightness Sun altitude
Rises 20:09:59 0° 349° (N) 2,577 ? -7.7°
Reaches altitude 10° 20:12:17 10° 360° (N) 1,712 ? -8.2°
Maximum altitude 20:15:41 30° 62° (ENE) 943 ? -8.8°
Drops below altitude 10° 20:19:09 10° 123° (ESE) 1,759 ? -9.4°
Sets 20:21:33 0° 133° (SE) 2,663 ? -9.8°
